period_start,C,m1,H,J0,J1,J2,J3,J4,J5,JA,JB,JC,JD,JJ,JK,JN,#
2014-06-18 00:01:40,0.01,1.10,0.00,22.47,26.70,29.66,9.77,39.80,1023.91,2040.29,3002.81,3015.02,3259.90,500.10,501.25,26.52,0000 0000 0000 0000 000000
2014-06-18 00:06:41,0.01,1.10,0.00,22.48,26.70,29.65,9.61,39.66,1023.78,2040.38,3002.72,3015.01,3259.85,499.71,500.78,26.56,0000 0000 0000 0000 000000
2014-06-18 00:11:42,0.03,1.10,0.00,22.48,26.70,29.68,9.66,39.77,1023.84,2040.41,3002.21,3015.00,3259.44,500.16,501.27,26.60,0000 0000 0000 0000 000000
2014-06-18 00:16:44,-0.01,1.10,0.00,22.50,26.70,29.67,9.69,39.96,1023.94,2040.44,3002.25,3015.00,3259.43,499.45,500.69,26.65,0000 0000 0000 0000 000000
2014-06-18 00:21:45,0.03,1.10,0.00,22.52,26.70,29.62,9.65,39.88,1023.94,2040.59,3002.14,3015.00,3259.35,499.92,501.04,26.69,0000 0000 0000 0000 000000
2014-06-18 00:26:46,0.00,1.10,0.00,22.52,26.70,29.67,9.62,39.83,1023.95,2040.62,3002.02,3015.00,3259.13,499.82,500.91,26.73,0000 0000 0000 0000 000000
2014-06-18 00:31:46,0.01,1.10,0.00,22.52,26.70,29.65,9.67,39.82,1023.97,2040.62,3002.01,3014.99,3259.10,499.74,500.94,26.77,0000 0000 0000 0000 000000
2014-06-18 00:36:47,0.01,1.10,0.00,22.52,26.70,29.59,9.72,39.81,1023.95,2040.76,3002.00,3014.99,3259.05,499.87,501.02,26.81,0000 0000 0000 0000 000000
2014-06-18 00:41:48,0.02,1.10,0.00,22.54,26.70,29.68,9.67,39.78,1023.94,2040.85,3002.00,3014.99,3259.03,500.13,501.06,26.86,0000 0000 0000 0000 000000
2014-06-18 00:46:49,-0.01,1.10,0.00,22.54,26.70,29.64,9.55,39.83,1023.94,2040.85,3001.96,3014.99,3259.01,500.08,501.22,26.90,0000 0000 0000 0000 000000
2014-06-18 00:51:50,-0.01,1.10,0.00,22.51,26.70,29.71,9.72,39.83,1023.96,2040.80,3001.96,3014.98,3259.00,500.37,501.52,26.94,0000 0000 0000 0000 000000
2014-06-18 00:56:51,0.00,1.10,0.00,22.44,26.70,29.73,9.70,39.92,1023.94,2040.76,3001.73,3014.95,3259.00,499.93,501.16,26.98,0000 0000 0000 0000 000000
2014-06-18 01:01:53,0.03,1.10,0.00,22.43,26.71,29.68,9.65,39.78,1023.94,2040.72,3001.20,3014.76,3258.96,499.75,501.00,27.02,0000 0000 0000 0000 000000
2014-06-18 01:06:54,-0.01,1.10,0.00,22.42,26.71,29.63,9.70,39.88,1023.71,2040.61,3001.06,3014.53,3258.93,500.03,501.01,27.07,0000 0000 0000 0000 000000
2014-06-18 01:11:55,0.00,1.10,0.00,22.40,26.71,29.72,9.69,39.83,1023.90,2040.68,3001.07,3014.50,3258.87,499.68,500.94,27.11,0000 0000 0000 0000 000000
2014-06-18 01:16:56,0.03,1.10,0.00,22.36,26.70,29.67,9.73,39.81,1023.71,2040.73,3001.02,3014.24,3258.55,500.21,501.33,27.15,0000 0000 0000 0000 000000
2014-06-18 01:21:57,0.01,1.11,0.00,22.36,26.70,29.71,9.71,39.88,1023.94,2040.69,3001.00,3014.04,3258.11,499.86,501.26,27.19,0000 0000 0000 0000 000000
2014-06-18 01:26:58,0.02,1.11,0.00,22.35,26.70,29.66,9.73,39.82,1023.94,2040.85,3001.00,3014.08,3258.12,500.29,501.67,27.23,0000 0000 0000 0000 000000
2014-06-18 01:32:00,0.00,1.11,0.00,22.35,26.70,29.66,9.68,39.83,1023.94,2040.84,3000.94,3014.03,3258.04,499.71,501.22,27.28,0000 0000 0000 0000 000000
2014-06-18 01:37:01,-0.02,1.11,0.00,22.36,26.70,29.62,9.68,39.84,1023.94,2040.73,3000.88,3014.02,3258.01,499.95,501.36,27.32,0000 0000 0000 0000 000000
2014-06-18 01:42:02,0.01,1.11,0.00,22.35,26.70,29.69,9.68,39.81,1023.96,2040.71,3000.44,3014.00,3258.00,499.90,501.25,27.36,0000 0000 0000 0000 000000
2014-06-18 01:47:03,-0.00,1.11,0.00,22.31,26.70,29.65,9.63,39.78,1024.02,2040.68,3000.52,3014.00,3258.00,499.58,501.05,27.40,0000 0000 0000 0000 000000
2014-06-18 01:52:04,0.02,1.11,0.00,22.23,26.68,29.51,9.76,39.88,1023.97,2040.87,3000.51,3014.00,3258.00,500.18,501.73,27.44,0000 0000 0000 0000 000000
2014-06-18 01:57:05,0.01,1.11,0.00,22.18,26.67,29.37,9.78,39.97,1023.94,2040.94,3000.57,3014.01,3257.99,500.61,502.24,27.48,0000 0000 0000 0000 000000
2014-06-18 02:02:06,-0.00,1.11,0.00,22.14,26.65,29.27,9.69,39.98,1023.92,2040.97,3000.79,3014.04,3258.01,499.70,501.71,27.53,0000 0000 0000 0000 000000
2014-06-18 02:07:07,-0.00,1.11,0.00,22.08,26.61,29.17,9.65,39.92,1023.82,2040.99,3000.83,3014.17,3258.04,499.59,501.47,27.57,0000 0000 0000 0000 000000
2014-06-18 02:12:09,-0.02,1.11,0.00,22.06,26.58,29.12,9.80,39.91,1023.53,2040.99,3000.86,3014.73,3258.22,500.30,501.89,27.61,0000 0000 0000 0000 000000
2014-06-18 02:17:10,-0.01,1.11,0.00,22.04,26.55,29.04,9.71,39.87,1023.46,2041.00,3000.89,3014.93,3258.55,499.59,501.33,27.65,0000 0000 0000 0000 000000
2014-06-18 02:22:11,0.00,1.11,0.00,22.04,26.51,29.02,9.64,39.77,1023.45,2041.05,3000.79,3014.98,3258.87,500.07,501.72,27.69,0000 0000 0000 0000 000000
2014-06-18 02:27:12,0.05,1.11,0.00,22.06,26.47,28.95,9.72,39.83,1023.46,2041.40,3000.97,3014.99,3258.98,500.12,501.91,27.74,0000 0000 0000 0000 000000
2014-06-18 02:32:13,0.03,1.11,0.00,22.07,26.43,28.99,9.66,39.88,1023.45,2041.86,3000.99,3015.02,3258.99,499.82,501.41,27.78,0000 0000 0000 0000 000000
2014-06-18 02:37:14,-0.00,1.11,0.00,22.09,26.39,28.92,9.77,39.97,1023.43,2041.97,3001.00,3015.23,3259.03,500.02,501.61,27.82,0000 0000 0000 0000 000000
2014-06-18 02:42:15,-0.01,1.11,0.00,22.09,26.36,28.90,9.66,39.83,1023.45,2041.99,3000.98,3015.62,3259.03,500.07,501.50,27.86,0000 0000 0000 0000 000000
2014-06-18 02:47:16,-0.01,1.11,0.00,22.08,26.32,28.84,9.69,40.02,1023.39,2042.00,3000.98,3015.88,3259.25,499.91,501.45,27.90,0000 0000 0000 0000 000000
2014-06-18 02:52:17,0.01,1.11,0.00,22.08,26.28,28.79,9.72,40.14,1023.30,2042.03,3000.91,3015.98,3259.34,500.29,501.76,27.95,0000 0000 0000 0000 000000
2014-06-18 02:57:18,0.06,1.11,0.00,22.05,26.25,28.73,9.59,39.99,1022.98,2042.45,3000.96,3015.99,3259.83,499.95,501.39,27.99,0000 0000 0000 0000 000000
2014-06-18 03:02:19,0.02,1.11,0.00,22.03,26.21,28.63,9.57,40.12,1022.96,2042.92,3000.96,3015.99,3259.97,500.08,501.68,28.03,0000 0000 0000 0000 000000
2014-06-18 03:07:20,0.00,1.11,0.00,22.01,26.17,28.69,9.71,40.08,1022.96,2042.96,3000.99,3016.01,3259.98,499.82,501.34,28.07,0000 0000 0000 0000 000000
2014-06-18 03:12:21,-0.00,1.11,0.00,21.99,26.13,28.65,9.65,40.26,1022.97,2042.99,3000.98,3016.18,3259.99,500.30,501.73,28.11,0000 0000 0000 0000 000000
2014-06-18 03:17:22,-0.02,1.11,0.00,21.99,26.10,28.67,9.69,40.26,1022.96,2042.99,3000.99,3016.75,3260.00,499.85,501.26,28.16,0000 0000 0000 0000 000000
2014-06-18 03:22:23,0.00,1.11,0.00,21.97,26.06,28.65,9.72,40.14,1022.96,2043.03,3001.00,3016.96,3260.04,500.40,501.94,28.20,0000 0000 0000 0000 000000
2014-06-18 03:27:24,0.01,1.11,0.00,21.97,26.03,28.65,9.57,40.08,1022.96,2043.16,3000.99,3016.99,3260.06,499.61,501.10,28.24,0000 0000 0000 0000 000000
2014-06-18 03:32:25,0.07,1.11,0.00,21.97,26.00,28.68,9.62,40.11,1022.97,2043.78,3000.99,3016.99,3260.35,499.67,501.14,28.28,0000 0000 0000 0000 000000
2014-06-18 03:37:26,0.00,1.11,0.00,21.96,25.96,28.60,9.89,40.25,1022.96,2043.96,3001.00,3017.00,3260.57,500.47,501.97,28.32,0000 0000 0000 0000 000000
2014-06-18 03:42:27,-0.00,1.11,0.00,21.94,25.94,28.57,9.69,40.10,1022.96,2043.99,3000.99,3017.02,3260.85,500.09,501.86,28.36,0000 0000 0000 0000 000000
2014-06-18 03:47:27,-0.00,1.11,0.00,21.92,25.91,28.56,9.65,40.09,1022.96,2043.99,3000.99,3017.08,3260.95,499.85,501.49,28.41,0000 0000 0000 0000 000000
2014-06-18 03:52:28,-0.00,1.11,0.00,21.91,25.88,28.56,9.67,40.14,1022.91,2043.99,3000.99,3017.25,3260.98,499.91,501.52,28.45,0000 0000 0000 0000 000000
2014-06-18 03:57:29,-0.02,1.11,0.00,21.88,25.85,28.49,9.51,40.13,1022.55,2044.01,3000.93,3017.72,3260.88,499.82,501.35,28.49,0000 0000 0000 0000 000000
2014-06-18 04:02:30,0.12,1.12,0.00,21.85,25.82,28.41,9.64,40.08,1022.49,2044.04,3000.02,3016.15,3259.18,499.84,501.29,28.53,0000 0000 0000 0000 000000
2014-06-18 04:07:32,0.01,1.12,0.00,21.83,25.79,28.40,9.63,40.03,1022.48,2044.09,2999.95,3016.01,3259.03,499.82,501.33,28.57,0000 0000 0000 0000 000000
2014-06-18 04:12:33,0.07,1.12,0.00,21.82,25.76,28.42,9.69,40.02,1022.48,2044.68,2999.97,3016.04,3259.09,500.15,501.69,28.62,0000 0000 0000 0000 000000
2014-06-18 04:17:34,0.01,1.12,0.00,21.82,25.73,28.40,9.75,40.08,1022.30,2044.93,2999.98,3016.20,3259.27,500.29,501.93,28.66,0000 0000 0000 0000 000000
2014-06-18 04:22:35,-0.02,1.12,0.00,21.79,25.71,28.43,9.78,40.06,1022.40,2044.98,2999.98,3016.60,3259.63,500.62,502.05,28.70,0000 0000 0000 0000 000000
2014-06-18 04:27:36,-0.01,1.12,0.00,21.76,25.67,28.32,9.69,39.88,1022.40,2044.99,2999.96,3016.89,3259.82,500.04,501.63,28.74,0000 0000 0000 0000 000000
2014-06-18 04:32:37,0.00,1.12,0.00,21.75,25.65,28.30,9.61,39.79,1022.07,2044.99,2999.87,3016.94,3259.84,499.61,501.12,28.78,0000 0000 0000 0000 000000
2014-06-18 04:37:38,-0.00,1.12,0.00,21.72,25.62,28.27,9.75,39.94,1022.06,2045.00,2999.91,3016.98,3259.95,500.02,501.57,28.83,0000 0000 0000 0000 000000
2014-06-18 04:42:40,0.01,1.12,0.00,21.69,25.59,28.21,9.73,39.94,1022.03,2045.09,2999.95,3016.99,3259.99,500.15,501.76,28.87,0000 0000 0000 0000 000000
2014-06-18 04:47:41,0.00,1.12,0.00,21.67,25.56,28.22,9.71,39.88,1021.99,2045.11,2999.76,3016.98,3259.94,500.23,501.81,28.91,0000 0000 0000 0000 000000
2014-06-18 04:52:42,0.04,1.12,0.00,21.65,25.53,28.18,9.68,39.88,1022.01,2045.43,2999.76,3016.99,3259.97,499.94,501.49,28.95,0000 0000 0000 0000 000000
2014-06-18 04:57:43,0.04,1.13,0.00,21.63,25.51,28.06,9.61,39.85,1021.99,2045.90,2999.78,3016.99,3259.98,500.12,501.70,28.99,0000 0000 0000 0000 000000
2014-06-18 05:02:44,-0.00,1.13,0.00,21.60,25.48,28.15,9.71,39.96,1021.98,2045.98,2999.88,3017.05,3259.99,499.80,501.47,29.04,0000 0000 0000 0000 000000
2014-06-18 05:07:45,0.01,1.13,0.00,21.54,25.45,28.11,9.69,40.17,1021.92,2045.99,2999.77,3017.10,3259.99,500.19,501.94,29.08,0000 0000 0000 0000 000000
2014-06-18 05:12:47,-0.01,1.13,0.00,21.47,25.42,28.04,9.68,40.04,1021.92,2045.99,2999.75,3017.21,3260.00,499.80,501.52,29.12,0000 0000 0000 0000 000000
2014-06-18 05:17:48,-0.02,1.12,0.00,21.41,25.40,27.93,9.70,40.16,1021.85,2045.99,2999.79,3017.70,3260.02,499.93,501.91,29.16,0000 0000 0000 0000 000000
2014-06-18 05:22:48,-0.00,1.12,0.00,21.34,25.36,27.93,9.69,40.17,1021.53,2046.01,2999.78,3017.92,3260.04,500.11,502.13,29.20,0000 0000 0000 0000 000000
2014-06-18 05:27:50,0.02,1.12,0.00,21.29,25.33,27.87,9.67,40.16,1021.50,2046.11,2999.59,3017.98,3260.03,500.07,502.19,29.24,0000 0000 0000 0000 000000
2014-06-18 05:32:51,0.04,1.13,0.00,21.25,25.30,27.85,9.69,40.04,1021.47,2046.49,2999.64,3017.99,3260.21,499.94,501.99,29.29,0000 0000 0000 0000 000000
2014-06-18 05:37:53,0.03,1.13,0.00,21.21,25.27,27.81,9.69,39.95,1021.25,2046.91,2999.64,3017.99,3260.56,499.79,501.85,29.33,0000 0000 0000 0000 000000
2014-06-18 05:42:54,-0.01,1.13,0.00,21.17,25.24,27.78,9.63,40.01,1021.07,2046.97,2999.82,3018.00,3260.81,499.95,501.97,29.37,0000 0000 0000 0000 000000
2014-06-18 05:47:55,-0.00,1.13,0.00,21.12,25.20,27.70,9.72,40.11,1021.01,2046.99,2999.98,3018.14,3260.98,500.19,502.23,29.41,0000 0000 0000 0000 000000
2014-06-18 05:52:56,-0.02,1.13,0.00,21.08,25.17,27.70,9.74,40.17,1021.00,2046.99,2999.98,3018.59,3260.99,499.85,501.76,29.45,0000 0000 0000 0000 000000
2014-06-18 05:57:57,-0.01,1.13,0.00,21.05,25.13,27.68,9.80,40.32,1020.92,2046.99,2999.98,3018.93,3261.00,500.62,502.76,29.50,0000 0000 0000 0000 000000
2014-06-18 06:02:58,0.00,1.13,0.00,21.01,25.10,27.61,9.65,40.22,1020.96,2046.99,3000.00,3018.98,3261.02,499.66,501.85,29.54,0000 0000 0000 0000 000000
2014-06-18 06:07:59,-0.00,1.13,0.00,20.98,25.06,27.50,9.74,40.16,1020.79,2047.00,2999.98,3018.99,3261.09,500.15,502.25,29.58,0000 0000 0000 0000 000000
2014-06-18 06:13:00,-0.01,1.13,0.00,20.96,25.02,27.53,9.73,40.13,1020.63,2047.07,3000.00,3019.01,3261.69,500.62,502.74,29.62,0000 0000 0000 0000 000000
2014-06-18 06:18:02,0.04,1.13,0.00,20.93,24.99,27.54,9.69,40.07,1020.54,2047.46,3000.04,3019.17,3261.95,499.70,501.89,29.66,0000 0000 0000 0000 000000
2014-06-18 06:23:03,0.01,1.13,0.00,20.90,24.96,27.52,9.70,40.21,1020.54,2047.92,3000.17,3019.80,3261.99,500.21,502.32,29.71,0000 0000 0000 0000 000000
2014-06-18 06:28:04,0.00,1.13,0.00,20.88,24.92,27.48,9.73,40.36,1020.54,2047.98,3000.14,3019.96,3261.99,500.01,502.30,29.75,0000 0000 0000 0000 000000
2014-06-18 06:33:05,-0.00,1.13,0.00,20.85,24.89,27.38,9.66,40.21,1020.62,2047.99,3000.17,3019.97,3262.00,500.14,502.38,29.79,0000 0000 0000 0000 000000
2014-06-18 06:38:06,-0.01,1.13,0.00,20.80,24.85,27.38,9.69,40.28,1020.60,2048.00,3000.70,3019.99,3262.12,499.97,502.30,29.83,0000 0000 0000 0000 000000
2014-06-18 06:43:07,-0.01,1.13,0.00,20.74,24.81,27.29,9.77,40.53,1020.56,2048.02,3000.92,3020.01,3262.53,500.19,502.68,29.87,0000 0000 0000 0000 000000
2014-06-18 06:48:08,0.03,1.13,0.00,20.66,24.77,27.27,9.67,40.82,1020.53,2048.20,3000.81,3020.02,3262.75,499.88,502.52,29.92,0000 0000 0000 0000 000000
2014-06-18 06:53:10,0.07,1.13,0.00,20.56,24.73,27.20,9.67,40.83,1020.55,2048.79,3000.32,3020.05,3262.81,499.75,502.78,29.96,0000 0000 0000 0000 000000
2014-06-18 06:58:11,-0.03,1.13,0.00,20.43,24.69,27.35,9.73,40.84,1020.54,2048.98,3000.52,3020.69,3262.97,500.19,503.10,30.00,0000 0000 0000 0000 000000
2014-06-18 07:03:12,-0.00,1.13,0.00,20.42,24.66,27.48,9.80,40.80,1020.56,2048.99,3000.68,3020.94,3262.99,500.21,503.14,30.04,0000 0000 0000 0000 000000
2014-06-18 07:08:14,-0.00,1.13,0.00,20.41,24.63,27.27,9.68,40.56,1020.69,2048.99,3000.76,3020.96,3262.99,500.00,502.97,30.08,0000 0000 0000 0000 000000
2014-06-18 07:13:15,0.00,1.13,0.00,20.47,24.62,27.05,9.77,40.59,1020.64,2048.99,3000.61,3020.97,3262.99,500.49,503.39,30.13,0000 0000 0000 0000 000000
2014-06-18 07:18:16,0.01,1.13,0.00,20.37,24.64,27.03,9.66,40.22,1020.52,2048.99,3000.44,3020.94,3262.98,499.82,502.84,30.17,0000 0000 0000 0000 000000
2014-06-18 07:23:17,0.03,1.13,0.00,20.31,24.66,27.10,9.66,40.17,1020.51,2048.99,3000.12,3020.37,3262.85,499.91,503.06,30.21,0000 0000 0000 0000 000000
2014-06-18 07:28:18,0.02,1.13,0.00,20.34,24.69,27.20,9.71,40.03,1020.36,2048.99,3000.01,3020.04,3262.21,499.97,503.10,30.25,0000 0000 0000 0000 000000
2014-06-18 07:33:19,0.00,1.13,0.00,20.50,24.74,27.33,9.65,40.14,1020.34,2048.98,2999.91,3020.00,3262.00,499.40,502.23,30.29,0000 0000 0000 0000 000000
2014-06-18 07:38:20,0.03,1.13,0.00,20.59,24.80,27.44,9.74,40.29,1020.51,2048.96,2999.47,3019.84,3261.89,500.01,502.69,30.33,0000 0000 0000 0000 000000
2014-06-18 07:43:21,-0.04,1.14,0.00,20.70,24.88,27.58,9.67,40.16,1020.51,2048.57,2999.04,3019.12,3261.17,499.61,502.35,30.38,0000 0000 0000 0000 000000
2014-06-18 07:48:23,0.03,1.13,0.00,20.82,24.96,27.72,9.74,40.21,1020.52,2048.03,2998.59,3018.67,3260.65,499.99,502.42,30.42,0000 0000 0000 0000 000000
2014-06-18 07:53:24,0.02,1.14,0.00,20.94,25.04,27.85,9.72,40.26,1020.52,2047.98,2997.96,3018.01,3260.00,499.79,501.90,30.46,0000 0000 0000 0000 000000
2014-06-18 07:58:24,-0.00,1.14,0.00,21.08,25.14,28.01,9.70,40.18,1020.52,2047.60,2997.27,3017.43,3259.28,500.42,502.11,30.50,0000 0000 0000 0000 000000
2014-06-18 08:03:25,-0.01,1.13,0.00,21.14,25.25,28.14,9.64,40.17,1020.53,2047.04,2996.86,3016.84,3258.58,499.87,501.65,30.54,0000 0000 0000 0000 000000
2014-06-18 08:08:27,0.05,1.14,0.00,21.30,25.36,28.30,9.64,40.14,1020.53,2047.00,2996.07,3016.05,3257.85,499.91,501.44,30.59,0000 0000 0000 0000 000000
2014-06-18 08:13:28,0.05,1.14,0.00,21.39,25.48,28.44,9.69,40.27,1020.64,2046.91,2995.54,3015.31,3257.04,499.89,501.16,30.63,0000 0000 0000 0000 000000
2014-06-18 08:18:29,-0.05,1.14,0.00,21.53,25.60,28.58,9.71,40.20,1020.67,2046.17,2994.92,3014.71,3256.29,500.43,501.50,30.67,0000 0000 0000 0000 000000
2014-06-18 08:23:31,0.04,1.14,0.00,22.37,25.72,28.70,9.73,40.26,1020.90,2045.98,2994.11,3013.93,3255.48,500.07,499.93,30.71,0000 0000 0000 0000 000000
2014-06-18 08:28:32,-0.03,1.14,0.00,22.80,25.85,28.79,9.60,40.12,1020.96,2045.37,2993.62,3013.11,3254.65,500.24,499.46,30.75,0000 0000 0000 0000 000000
2014-06-18 08:33:33,0.03,1.14,0.00,22.93,25.97,28.90,9.62,39.96,1021.02,2045.00,2992.95,3012.30,3253.84,500.22,499.10,30.80,0000 0000 0000 0000 000000
2014-06-18 08:38:34,-0.02,1.14,0.00,22.98,26.09,29.02,9.61,39.83,1021.01,2044.57,2992.12,3011.64,3253.01,500.08,498.90,30.84,0000 0000 0000 0000 000000
2014-06-18 08:43:35,0.01,1.14,0.00,22.97,26.19,29.08,9.64,40.06,1021.00,2044.01,2991.50,3011.00,3252.14,500.11,499.03,30.88,0000 0000 0000 0000 000000
2014-06-18 08:48:36,0.03,1.14,0.00,22.95,26.28,29.16,9.61,39.95,1021.00,2043.87,2990.98,3010.23,3251.55,500.24,499.21,30.92,0000 0000 0000 0000 000000
2014-06-18 08:53:37,-0.05,1.14,0.00,23.00,26.37,29.21,9.58,40.09,1021.01,2043.11,2990.22,3009.78,3250.89,499.51,498.49,30.96,0000 0000 0000 0000 000000
2014-06-18 08:58:38,0.05,1.14,0.00,23.03,26.45,29.25,9.58,39.92,1021.01,2043.00,2989.81,3009.04,3250.11,499.81,498.53,31.00,0000 0000 0000 0000 000000
2014-06-18 09:03:39,-0.01,1.14,0.00,23.04,26.51,29.27,9.62,40.08,1021.01,2042.82,2989.24,3008.76,3249.84,499.58,498.40,31.05,0000 0000 0000 0000 000000
2014-06-18 09:08:40,-0.03,1.14,0.00,23.04,26.57,29.31,9.64,40.02,1021.00,2042.18,2988.99,3008.05,3249.07,499.87,498.68,31.09,0000 0000 0000 0000 000000
2014-06-18 09:13:42,0.02,1.14,0.00,23.05,26.62,29.33,9.62,39.98,1020.73,2042.01,2988.40,3007.95,3248.78,500.05,498.63,31.13,0000 0000 0000 0000 000000
2014-06-18 09:18:43,0.04,1.14,0.00,23.07,26.66,29.34,9.61,39.71,1020.53,2041.99,2988.00,3007.22,3248.05,500.45,499.01,31.17,0000 0000 0000 0000 000000
2014-06-18 09:23:45,-0.01,1.14,0.00,23.07,26.70,29.38,9.57,39.83,1020.54,2041.78,2987.57,3007.00,3247.86,499.68,498.28,31.21,0000 0000 0000 0000 000000
2014-06-18 09:28:46,-0.04,1.14,0.00,23.05,26.74,29.42,9.67,39.91,1020.55,2041.15,2987.02,3006.88,3247.10,500.36,498.85,31.26,0000 0000 0000 0000 000000
2014-06-18 09:33:47,0.02,1.14,0.00,23.06,26.77,29.45,9.59,39.83,1020.55,2041.02,2986.74,3006.19,3246.99,500.00,498.59,31.30,0000 0000 0000 0000 000000
2014-06-18 09:38:49,0.01,1.14,0.00,23.07,26.80,29.46,9.63,39.75,1020.55,2041.00,2986.33,3006.00,3246.72,500.23,498.51,31.34,0000 0000 0000 0000 000000
2014-06-18 09:43:50,0.01,1.14,0.00,23.07,26.82,29.48,9.63,39.77,1020.52,2041.00,2986.01,3005.99,3246.08,499.75,498.21,31.38,0000 0000 0000 0000 000000
2014-06-18 09:48:51,0.02,1.14,0.00,23.03,26.84,29.50,9.62,39.72,1020.52,2040.97,2985.84,3005.44,3246.00,500.01,498.57,31.42,0000 0000 0000 0000 000000
2014-06-18 09:53:52,0.02,1.14,0.00,23.06,26.86,29.51,9.60,39.80,1020.50,2040.97,2985.44,3005.06,3245.85,500.06,498.69,31.47,0000 0000 0000 0000 000000
2014-06-18 09:58:53,0.00,1.14,0.00,23.06,26.87,29.50,9.59,39.88,1020.22,2040.87,2985.08,3005.01,3245.35,500.23,498.59,31.51,0000 0000 0000 0000 000000
2014-06-18 10:03:54,-0.05,1.14,0.00,23.08,26.90,29.49,9.59,39.69,1020.05,2040.47,2985.00,3004.99,3245.03,499.70,497.80,31.55,0000 0000 0000 0000 000000
2014-06-18 10:08:55,-0.01,1.14,0.00,23.09,26.91,29.49,9.62,39.83,1020.04,2040.12,2984.82,3004.58,3244.98,499.98,498.18,31.59,0000 0000 0000 0000 000000
2014-06-18 10:13:57,0.02,1.14,0.00,23.08,26.92,29.52,9.65,39.70,1020.04,2040.02,2984.29,3004.09,3244.82,500.22,498.38,31.63,0000 0000 0000 0000 000000
2014-06-18 10:18:57,0.01,1.14,0.00,23.05,26.93,29.53,9.68,39.70,1020.04,2040.00,2984.01,3004.01,3244.15,500.16,498.65,31.68,0000 0000 0000 0000 000000
2014-06-18 10:23:58,0.00,1.14,0.00,23.06,26.95,29.55,9.64,39.80,1020.01,2040.00,2983.98,3004.00,3244.00,499.98,498.15,31.72,0000 0000 0000 0000 000000
2014-06-18 10:28:59,0.00,1.14,0.00,23.05,26.95,29.55,9.67,39.67,1019.89,2040.00,2983.87,3003.99,3244.00,499.99,498.30,31.76,0000 0000 0000 0000 000000
2014-06-18 10:34:00,0.02,1.14,0.00,23.02,26.95,29.55,9.54,39.83,1019.92,2040.00,2983.19,3003.84,3243.89,499.59,497.81,31.80,0000 0000 0000 0000 000000
2014-06-18 10:39:02,0.01,1.15,0.00,23.04,26.95,29.56,9.60,39.74,1019.75,2040.00,2983.06,3003.48,3243.68,499.98,498.23,31.84,0000 0000 0000 0000 000000
2014-06-18 10:44:03,0.02,1.15,0.00,23.03,26.97,29.56,9.56,39.52,1019.83,2040.00,2983.00,3003.09,3243.15,499.73,497.94,31.88,0000 0000 0000 0000 000000
2014-06-18 10:49:04,0.00,1.15,0.00,23.06,26.97,29.57,9.56,39.60,1019.89,2040.00,2982.96,3003.01,3243.01,499.93,497.75,31.93,0000 0000 0000 0000 000000
2014-06-18 10:54:05,0.01,1.15,0.00,23.03,26.97,29.58,9.58,39.71,1019.78,2039.99,2982.49,3003.00,3243.00,499.90,497.99,31.97,0000 0000 0000 0000 000000
2014-06-18 10:59:07,0.00,1.15,0.00,23.07,26.97,29.59,9.71,39.63,1019.81,2039.99,2982.02,3002.99,3242.99,500.46,498.47,32.01,0000 0000 0000 0000 000000
2014-06-18 11:04:08,0.00,1.15,0.00,23.04,26.97,29.64,9.50,39.65,1019.68,2039.99,2981.99,3002.97,3242.85,499.75,497.90,32.05,0000 0000 0000 0000 000000
2014-06-18 11:09:09,0.03,1.15,0.00,23.00,26.97,29.68,9.56,39.58,1019.73,2039.99,2981.78,3002.76,3242.22,500.00,498.34,32.09,0000 0000 0000 0000 000000
2014-06-18 11:14:10,0.01,1.15,0.00,22.99,26.97,29.70,9.65,39.71,1019.58,2039.98,2981.57,3002.42,3242.02,500.04,498.26,32.14,0000 0000 0000 0000 000000
2014-06-18 11:19:12,0.01,1.15,0.00,22.97,26.97,29.72,9.62,39.79,1019.55,2039.98,2981.19,3002.14,3242.00,499.99,498.30,32.18,0000 0000 0000 0000 000000
2014-06-18 11:24:13,0.00,1.15,0.00,22.96,26.97,29.76,9.62,39.66,1019.45,2039.99,2981.01,3002.06,3242.00,500.27,498.30,32.22,0000 0000 0000 0000 000000
2014-06-18 11:29:14,0.00,1.15,0.00,22.95,26.97,29.80,9.62,39.56,1019.14,2039.98,2980.97,3002.01,3241.96,500.28,498.33,32.26,0000 0000 0000 0000 000000
2014-06-18 11:34:15,0.02,1.15,0.00,22.94,26.97,29.85,9.68,39.67,1019.07,2039.98,2980.34,3001.99,3241.68,500.08,498.04,32.30,0000 0000 0000 0000 000000
2014-06-18 11:39:17,0.01,1.15,0.00,22.92,26.97,29.82,9.54,39.65,1019.06,2039.98,2980.15,3001.99,3241.31,499.88,497.87,32.34,0000 0000 0000 0000 000000
2014-06-18 11:44:18,0.00,1.15,0.00,22.89,26.97,29.83,9.69,39.69,1019.05,2039.98,2980.01,3001.99,3241.06,500.39,498.40,32.39,0000 0000 0000 0000 000000
2014-06-18 11:49:19,0.01,1.15,0.00,22.91,26.97,29.84,9.54,39.55,1018.88,2039.98,2979.99,3001.67,3241.00,499.83,497.72,32.43,0000 0000 0000 0000 000000
2014-06-18 11:54:21,0.01,1.15,0.00,22.89,26.97,29.82,9.55,39.65,1018.79,2039.98,2979.89,3001.24,3241.00,499.86,497.91,32.47,0000 0000 0000 0000 000000
2014-06-18 11:59:22,0.02,1.15,0.00,22.91,26.97,29.85,9.62,39.67,1018.83,2039.98,2979.17,3001.05,3240.97,500.08,498.08,32.51,0000 0000 0000 0000 000000
2014-06-18 12:04:23,0.00,1.16,0.00,22.93,26.97,29.84,9.46,39.43,1019.03,2039.99,2979.00,3001.02,3240.83,499.69,497.83,32.55,0000 0000 0000 0000 000000
2014-06-18 12:09:24,0.01,1.16,0.00,22.92,26.97,29.84,9.61,39.51,1018.97,2039.99,2979.00,3001.01,3240.58,500.15,498.12,32.59,0000 0000 0000 0000 000000
2014-06-18 12:14:25,0.01,1.16,0.00,22.89,26.97,29.83,9.60,39.60,1019.01,2039.99,2978.94,3001.00,3240.09,500.48,498.56,32.63,0000 0000 0000 0000 000000
2014-06-18 12:19:26,0.00,1.16,0.00,22.86,26.97,29.82,9.59,39.43,1018.90,2039.99,2978.74,3000.98,3240.01,500.09,498.10,32.68,0000 0000 0000 0000 000000
2014-06-18 12:24:27,0.01,1.16,0.00,22.89,26.97,29.85,9.66,39.33,1018.96,2039.98,2978.11,3000.95,3240.00,499.77,497.80,32.72,0000 0000 0000 0000 000000
2014-06-18 12:29:28,0.02,1.16,0.00,22.87,26.97,29.85,9.58,39.38,1018.83,2039.99,2978.00,3000.52,3239.97,499.75,497.77,32.76,0000 0000 0000 0000 000000
2014-06-18 12:34:30,0.04,1.16,0.00,22.87,26.97,29.84,9.74,39.39,1018.99,2039.99,2977.58,3000.06,3239.41,500.24,498.32,32.80,0000 0000 0000 0000 000000
2014-06-18 12:39:31,0.01,1.16,0.00,22.84,26.97,29.84,9.54,39.40,1018.97,2039.99,2977.03,3000.00,3239.04,499.68,497.91,32.84,0000 0000 0000 0000 000000
2014-06-18 12:44:32,0.00,1.16,0.00,22.79,26.97,29.87,9.64,39.43,1019.00,2039.99,2977.00,3000.00,3239.01,500.28,498.56,32.88,0000 0000 0000 0000 000000
2014-06-18 12:49:33,0.00,1.16,0.00,22.79,26.96,29.88,9.67,39.33,1018.65,2039.99,2977.00,3000.01,3239.00,500.06,498.01,32.93,0000 0000 0000 0000 000000
2014-06-18 12:54:34,0.00,1.16,0.00,22.82,26.95,29.87,9.63,39.23,1018.58,2039.99,2976.91,3000.00,3238.99,499.92,498.16,32.97,0000 0000 0000 0000 000000
2014-06-18 12:59:35,0.00,1.16,0.00,22.87,26.95,29.88,9.66,39.19,1018.53,2039.99,2976.72,3000.00,3238.98,500.12,498.04,33.01,0000 0000 0000 0000 000000